AFL1604 UUEE-UWWW

Flight info

Callsign AFL1604
Flight time N/A
Altitude 37000
Route KOGOM3H KOGOM L94 EKPIR M864 IBROT T784 OTKOL T787 OKSUD T778 RUBEK RUBEK2G
Aircraft B738/M-SDE2E3FGHIRWXY/LB1

Departure

Time N/A
Airport Sheremetyevo International Airport (UUEE)

Arrival

Time 2026-05-07 18:47
Airport Kurumoch International Airport (UWWW)
Time Latitude Longitude Altitude Speed Heading
2026-05-07 18:10 54.81238 46.01562 36963 ft 457 kts 111°
2026-05-07 18:11 54.80014 46.06728 36951 ft 457 kts 117°
2026-05-07 18:11 54.76324 46.15512 36957 ft 455 kts 136°
2026-05-07 18:12 54.71442 46.22458 36968 ft 455 kts 143°
2026-05-07 18:12 54.66444 46.29180 36960 ft 455 kts 142°
2026-05-07 18:13 54.61459 46.35955 36964 ft 456 kts 142°
2026-05-07 18:13 54.56490 46.42754 36966 ft 456 kts 142°
2026-05-07 18:14 54.52323 46.48449 36916 ft 458 kts 142°
2026-05-07 18:14 54.48984 46.53000 36231 ft 463 kts 142°
2026-05-07 18:14 54.46465 46.56427 35660 ft 461 kts 142°
2026-05-07 18:14 54.43950 46.59842 35048 ft 461 kts 141°
2026-05-07 18:15 54.41431 46.63255 34443 ft 461 kts 141°
2026-05-07 18:15 54.38925 46.66647 34022 ft 457 kts 141°
2026-05-07 18:15 54.36437 46.70009 33528 ft 453 kts 141°
2026-05-07 18:15 54.33972 46.73336 33055 ft 449 kts 141°
2026-05-07 18:16 54.31538 46.76617 32636 ft 444 kts 141°
2026-05-07 18:16 54.29120 46.79868 32203 ft 440 kts 141°
2026-05-07 18:16 54.26804 46.83234 31795 ft 434 kts 133°
2026-05-07 18:16 54.24884 46.87163 31384 ft 429 kts 123°
2026-05-07 18:17 54.23351 46.91497 30985 ft 423 kts 114°
2026-05-07 18:17 54.22224 46.96107 30590 ft 419 kts 110°
2026-05-07 18:17 54.21183 47.00731 30188 ft 416 kts 109°
2026-05-07 18:17 54.20154 47.05324 29740 ft 413 kts 109°
2026-05-07 18:18 54.19126 47.09888 29296 ft 409 kts 110°
2026-05-07 18:18 54.18103 47.14387 28882 ft 405 kts 110°
2026-05-07 18:18 54.17081 47.18844 28469 ft 401 kts 110°
2026-05-07 18:18 54.16065 47.23243 28049 ft 397 kts 110°
2026-05-07 18:19 54.15051 47.27618 27636 ft 394 kts 110°
2026-05-07 18:19 54.14045 47.31940 27237 ft 391 kts 110°
2026-05-07 18:19 54.13043 47.36232 26828 ft 388 kts 110°
2026-05-07 18:19 54.12047 47.40491 26430 ft 385 kts 111°
2026-05-07 18:20 54.11056 47.44721 26033 ft 383 kts 111°
2026-05-07 18:20 54.10072 47.48913 25644 ft 380 kts 111°
2026-05-07 18:20 54.09092 47.53080 25249 ft 378 kts 111°
2026-05-07 18:20 54.08115 47.57225 24864 ft 376 kts 111°
2026-05-07 18:21 54.07143 47.61342 24479 ft 374 kts 111°
2026-05-07 18:21 54.06174 47.65440 24086 ft 372 kts 111°
2026-05-07 18:21 54.05220 47.69463 23692 ft 371 kts 111°
2026-05-07 18:21 54.04241 47.73587 23251 ft 370 kts 111°
2026-05-07 18:22 54.03293 47.77571 22820 ft 368 kts 111°
2026-05-07 18:22 54.02644 47.80292 22540 ft 366 kts 111°
2026-05-07 18:22 54.01369 47.85634 22018 ft 363 kts 111°
2026-05-07 18:22 54.00437 47.89531 21634 ft 360 kts 111°
2026-05-07 18:23 53.99494 47.93462 21259 ft 358 kts 111°
2026-05-07 18:23 53.98558 47.97361 20887 ft 355 kts 111°
2026-05-07 18:23 53.97626 48.01239 20514 ft 354 kts 111°
2026-05-07 18:23 53.96697 48.05091 20138 ft 352 kts 111°
2026-05-07 18:24 53.95775 48.08913 19990 ft 346 kts 111°
2026-05-07 18:24 53.94865 48.12676 19972 ft 341 kts 111°
2026-05-07 18:24 53.93976 48.16342 19951 ft 331 kts 111°
2026-05-07 18:24 53.93115 48.19891 19945 ft 319 kts 111°
2026-05-07 18:25 53.92286 48.23299 19952 ft 306 kts 111°
2026-05-07 18:25 53.91484 48.26593 19808 ft 299 kts 111°
2026-05-07 18:25 53.90694 48.29838 19527 ft 297 kts 111°
2026-05-07 18:25 53.89900 48.33092 19141 ft 300 kts 111°
2026-05-07 18:26 53.89095 48.36391 18620 ft 307 kts 111°
2026-05-07 18:26 53.88247 48.39862 17511 ft 332 kts 111°
2026-05-07 18:26 53.87334 48.43591 16627 ft 348 kts 111°
2026-05-07 18:26 53.86403 48.47379 16212 ft 347 kts 111°
2026-05-07 18:27 53.85479 48.51130 15946 ft 341 kts 111°
2026-05-07 18:27 53.84875 48.53576 15749 ft 338 kts 111°
2026-05-07 18:27 53.83971 48.57239 15369 ft 337 kts 111°
2026-05-07 18:27 53.82763 48.62124 14864 ft 335 kts 111°
2026-05-07 18:28 53.82168 48.64525 14631 ft 333 kts 111°
2026-05-07 18:28 53.81274 48.68131 14288 ft 331 kts 111°
2026-05-07 18:28 53.80673 48.70554 14056 ft 330 kts 111°
2026-05-07 18:28 53.79787 48.74118 13717 ft 328 kts 111°
2026-05-07 18:29 53.78906 48.77661 13331 ft 326 kts 111°
2026-05-07 18:29 53.77744 48.82318 12837 ft 323 kts 111°
2026-05-07 18:29 53.76870 48.85810 12466 ft 322 kts 111°
2026-05-07 18:29 53.75853 48.89172 12086 ft 321 kts 120°
2026-05-07 18:30 53.74651 48.92344 11732 ft 320 kts 122°
2026-05-07 18:30 53.73415 48.95451 11377 ft 318 kts 122°
2026-05-07 18:30 53.72597 48.97502 11144 ft 317 kts 122°
2026-05-07 18:30 53.71376 49.00586 10811 ft 315 kts 122°
2026-05-07 18:31 53.69783 49.04661 10567 ft 305 kts 121°
2026-05-07 18:31 53.68642 49.07599 10490 ft 294 kts 121°
2026-05-07 18:31 53.67542 49.10446 10372 ft 286 kts 121°
2026-05-07 18:31 53.66469 49.13227 10192 ft 280 kts 121°
2026-05-07 18:32 53.65409 49.15979 9907 ft 280 kts 121°
2026-05-07 18:32 53.64350 49.18729 9589 ft 279 kts 121°
2026-05-07 18:32 53.63294 49.21466 9303 ft 278 kts 121°
2026-05-07 18:32 53.62243 49.24190 9002 ft 276 kts 121°
2026-05-07 18:33 53.61198 49.26895 8713 ft 275 kts 121°
2026-05-07 18:33 53.59820 49.30461 8329 ft 273 kts 121°
2026-05-07 18:33 53.58784 49.33135 8045 ft 272 kts 121°
2026-05-07 18:33 53.57752 49.35796 7760 ft 271 kts 121°
2026-05-07 18:34 53.57055 49.37590 7579 ft 270 kts 121°
2026-05-07 18:34 53.55703 49.41067 7260 ft 267 kts 122°
2026-05-07 18:34 53.55018 49.42830 7083 ft 266 kts 122°
2026-05-07 18:34 53.53684 49.46258 6742 ft 263 kts 122°
2026-05-07 18:35 53.52688 49.48816 6561 ft 261 kts 122°
2026-05-07 18:35 53.51698 49.51354 6443 ft 259 kts 122°
2026-05-07 18:35 53.51031 49.53065 6361 ft 259 kts 122°
2026-05-07 18:35 53.50053 49.55571 6257 ft 260 kts 122°
2026-05-07 18:36 53.49061 49.58108 6147 ft 260 kts 122°
2026-05-07 18:36 53.48069 49.60644 6034 ft 260 kts 122°
2026-05-07 18:36 53.47074 49.63185 5922 ft 260 kts 122°
2026-05-07 18:36 53.46079 49.65726 5817 ft 260 kts 122°
2026-05-07 18:37 53.45085 49.68259 5704 ft 260 kts 122°
2026-05-07 18:37 53.44090 49.70792 5589 ft 260 kts 122°
2026-05-07 18:37 53.43097 49.73320 5513 ft 259 kts 122°
2026-05-07 18:37 53.42107 49.75835 5425 ft 258 kts 122°
2026-05-07 18:38 53.41117 49.78349 5327 ft 258 kts 121°
2026-05-07 18:38 53.40128 49.80862 5228 ft 258 kts 121°
2026-05-07 18:38 53.39136 49.83377 5124 ft 259 kts 121°
2026-05-07 18:38 53.38144 49.85888 5012 ft 259 kts 121°
2026-05-07 18:39 53.37149 49.88402 4907 ft 259 kts 121°
2026-05-07 18:39 53.36154 49.90919 4814 ft 259 kts 120°
2026-05-07 18:39 53.35456 49.93664 4686 ft 256 kts 101°
2026-05-07 18:39 53.35104 49.96553 4579 ft 251 kts 99°
2026-05-07 18:40 53.34747 49.99389 4469 ft 247 kts 100°
2026-05-07 18:40 53.34383 50.02174 4363 ft 241 kts 100°
2026-05-07 18:40 53.34025 50.04845 4295 ft 228 kts 100°
2026-05-07 18:40 53.33685 50.07342 4218 ft 213 kts 100°
2026-05-07 18:41 53.33366 50.09679 4108 ft 200 kts 100°
2026-05-07 18:41 53.33066 50.11869 3992 ft 185 kts 99°
2026-05-07 18:41 53.33072 50.13922 3876 ft 178 kts 70°
2026-05-07 18:41 53.33505 50.15850 3663 ft 176 kts 69°
2026-05-07 18:42 53.33902 50.17748 3424 ft 169 kts 69°
2026-05-07 18:42 53.34276 50.19539 3223 ft 159 kts 68°
2026-05-07 18:42 53.34641 50.21269 3007 ft 156 kts 68°
2026-05-07 18:42 53.35000 50.22968 2811 ft 155 kts 69°
2026-05-07 18:43 53.35496 50.24539 2584 ft 154 kts 40°
2026-05-07 18:43 53.36518 50.24901 2492 ft 159 kts 356°
2026-05-07 18:43 53.37637 50.24735 2315 ft 161 kts
2026-05-07 18:43 53.38737 50.24451 2172 ft 159 kts 354°
2026-05-07 18:44 53.39786 50.24008 2101 ft 152 kts 351°
2026-05-07 18:44 53.40793 50.23467 1972 ft 152 kts 349°
2026-05-07 18:44 53.41788 50.22883 1798 ft 151 kts 348°
2026-05-07 18:44 53.42765 50.22297 1620 ft 148 kts 348°
2026-05-07 18:45 53.43726 50.21723 1431 ft 148 kts 347°
2026-05-07 18:45 53.44374 50.21333 1366 ft 148 kts 347°
2026-05-07 18:45 53.45703 50.20536 1100 ft 153 kts 344°
2026-05-07 18:45 53.46694 50.19934 938 ft 153 kts 342°
2026-05-07 18:46 53.47680 50.19338 731 ft 150 kts 339°
2026-05-07 18:46 53.48662 50.18754 571 ft 149 kts 341°
2026-05-07 18:46 53.49645 50.18166 412 ft 149 kts 341°
2026-05-07 18:46 53.50492 50.17665 415 ft 108 kts 340°
2026-05-07 18:47 53.51054 50.17327 407 ft 64 kts 340°
2026-05-07 18:47 53.51398 50.17119 415 ft 21 kts 340°
2026-05-07 18:47 53.51433 50.17009 408 ft 13 kts 245°
2026-05-07 18:47 53.51398 50.16902 415 ft 10 kts 241°
2026-05-07 18:48 53.51370 50.16813 413 ft 8 kts 241°
2026-05-07 18:48 53.51342 50.16728 420 ft 8 kts 241°
2026-05-07 18:48 53.51315 50.16645 417 ft 8 kts 242°
2026-05-07 18:48 53.51290 50.16565 430 ft 8 kts 242°
2026-05-07 18:49 53.51265 50.16487 426 ft 7 kts 241°
2026-05-07 18:49 53.51249 50.16437 424 ft 7 kts 241°